Tabellarische Ansicht des 30.4.2013


Die einzelnen Werte des Tages

Uhrzeit Temperatur Luftdruck Luftfeuchte Wind Hi-Wind Taupunkt THW Index Wind Chill Heat Index Solar- strahlung Regen

00:00

7.2 C

1017.7 hpa

78 %

1.6 km/h aus 114

4.8 km/h aus WNW

3.6 C

7.1 C

7.2 C

7.1 C

0 W/m

0.00 mm

00:05

7.2 C

1017.7 hpa

78 %

1.6 km/h aus 115

4.8 km/h aus WNW

3.6 C

7.0 C

7.2 C

7.0 C

0 W/m

0.00 mm

00:10

7.1 C

1017.7 hpa

78 %

3.2 km/h aus 116

8.0 km/h aus WNW

3.5 C

6.9 C

7.1 C

6.9 C

0 W/m

0.00 mm

00:15

7.1 C

1017.8 hpa

79 %

4.8 km/h aus 117

11.3 km/h aus SW

3.7 C

6.4 C

6.5 C

6.9 C

0 W/m

0.00 mm

00:20

7.1 C

1017.8 hpa

79 %

3.2 km/h aus 117

8.0 km/h aus SW

3.7 C

6.9 C

7.1 C

6.9 C

0 W/m

0.00 mm

00:25

7.1 C

1017.8 hpa

80 %

1.6 km/h aus 117

6.4 km/h aus SW

3.9 C

7.0 C

7.1 C

7.0 C

0 W/m

0.00 mm

00:30

7.1 C

1018.0 hpa

80 %

3.2 km/h aus 117

6.4 km/h aus SW

3.9 C

7.0 C

7.1 C

7.0 C

0 W/m

0.00 mm

00:35

7.1 C

1018.0 hpa

80 %

3.2 km/h aus 117

6.4 km/h aus SW

3.8 C

6.9 C

7.1 C

6.9 C

0 W/m

0.00 mm

00:40

7.0 C

1018.0 hpa

80 %

4.8 km/h aus 117

6.4 km/h aus SW

3.8 C

6.3 C

6.4 C

6.9 C

0 W/m

0.00 mm

00:45

6.9 C

1018.1 hpa

79 %

3.2 km/h aus 117

4.8 km/h aus SW

3.6 C

6.8 C

6.9 C

6.8 C

0 W/m

0.00 mm

00:50

6.8 C

1018.1 hpa

79 %

1.6 km/h aus 117

4.8 km/h aus SW

3.4 C

6.7 C

6.8 C

6.7 C

0 W/m

0.00 mm

00:55

6.7 C

1018.1 hpa

79 %

3.2 km/h aus 116

4.8 km/h aus SW

3.3 C

6.6 C

6.7 C

6.6 C

0 W/m

0.00 mm

01:00

6.6 C

1018.1 hpa

79 %

3.2 km/h aus 116

4.8 km/h aus SW

3.2 C

6.4 C

6.6 C

6.4 C

0 W/m

0.00 mm

01:05

6.3 C

1018.1 hpa

79 %

3.2 km/h aus 115

4.8 km/h aus SW

3.0 C

6.2 C

6.3 C

6.2 C

0 W/m

0.00 mm

01:10

6.2 C

1018.1 hpa

79 %

4.8 km/h aus 117

6.4 km/h aus SW

2.8 C

5.3 C

5.5 C

6.0 C

0 W/m

0.00 mm

01:15

6.0 C

1018.1 hpa

79 %

4.8 km/h aus 115

6.4 km/h aus SW

2.6 C

5.2 C

5.3 C

5.8 C

0 W/m

0.00 mm

01:20

5.8 C

1018.1 hpa

79 %

3.2 km/h aus 117

4.8 km/h aus SW

2.5 C

5.7 C

5.8 C

5.7 C

0 W/m

0.00 mm

01:25

5.8 C

1018.1 hpa

80 %

3.2 km/h aus 116

4.8 km/h aus SW

2.6 C

5.6 C

5.8 C

5.6 C

0 W/m

0.00 mm

01:30

5.7 C

1018.1 hpa

80 %

0.0 km/h aus 116

3.2 km/h aus SW

2.5 C

5.5 C

5.7 C

5.5 C

0 W/m

0.00 mm

01:35

5.5 C

1018.1 hpa

80 %

0.0 km/h aus 112

3.2 km/h aus SW

2.3 C

5.3 C

5.5 C

5.3 C

0 W/m

0.00 mm

01:40

5.4 C

1018.1 hpa

80 %

0.0 km/h aus 116

0.0 km/h aus ---

2.2 C

5.2 C

5.4 C

5.2 C

0 W/m

0.00 mm

01:45

5.3 C

1018.0 hpa

80 %

1.6 km/h aus 117

3.2 km/h aus SW

2.1 C

5.1 C

5.3 C

5.1 C

0 W/m

0.00 mm

01:50

5.2 C

1018.0 hpa

80 %

4.8 km/h aus 117

6.4 km/h aus SW

2.0 C

4.2 C

4.3 C

5.0 C

0 W/m

0.00 mm

01:55

5.1 C

1018.0 hpa

80 %

4.8 km/h aus 115

6.4 km/h aus SW

1.9 C

4.1 C

4.2 C

4.9 C

0 W/m

0.00 mm

02:00

4.9 C

1018.1 hpa

81 %

4.8 km/h aus 116

6.4 km/h aus SW

2.0 C

3.9 C

4.1 C

4.8 C

0 W/m

0.00 mm

02:05

4.9 C

1018.1 hpa

81 %

4.8 km/h aus 117

8.0 km/h aus SW

1.9 C

3.9 C

4.1 C

4.7 C

0 W/m

0.00 mm

02:10

4.8 C

1018.1 hpa

81 %

4.8 km/h aus 115

6.4 km/h aus SW

1.8 C

3.8 C

3.9 C

4.6 C

0 W/m

0.00 mm

02:15

4.7 C

1018.1 hpa

82 %

3.2 km/h aus 114

6.4 km/h aus SW

1.9 C

4.4 C

4.6 C

4.5 C

0 W/m

0.00 mm

02:20

4.6 C

1018.1 hpa

82 %

3.2 km/h aus 116

8.0 km/h aus SW

1.8 C

4.3 C

4.5 C

4.4 C

0 W/m

0.00 mm

02:25

4.6 C

1018.1 hpa

82 %

3.2 km/h aus 115

6.4 km/h aus SW

1.7 C

4.3 C

4.4 C

4.4 C

0 W/m

0.00 mm

02:30

4.6 C

1018.1 hpa

83 %

6.4 km/h aus 116

9.7 km/h aus SSW

1.9 C

2.9 C

3.1 C

4.4 C

0 W/m

0.00 mm

02:35

4.6 C

1018.1 hpa

83 %

6.4 km/h aus 114

9.7 km/h aus SSW

1.9 C

2.9 C

3.1 C

4.4 C

0 W/m

0.00 mm

02:40

4.6 C

1018.1 hpa

84 %

6.4 km/h aus 116

8.0 km/h aus SSW

2.1 C

2.9 C

3.1 C

4.4 C

0 W/m

0.00 mm

02:45

4.6 C

1018.2 hpa

84 %

4.8 km/h aus 117

8.0 km/h aus SSW

2.1 C

3.6 C

3.7 C

4.4 C

0 W/m

0.00 mm

02:50

4.6 C

1018.2 hpa

84 %

3.2 km/h aus 116

4.8 km/h aus SSW

2.1 C

4.3 C

4.4 C

4.4 C

0 W/m

0.00 mm

02:55

4.6 C

1018.2 hpa

84 %

1.6 km/h aus 116

4.8 km/h aus SSW

2.1 C

4.4 C

4.6 C

4.4 C

0 W/m

0.00 mm

03:00

4.6 C

1018.2 hpa

85 %

1.6 km/h aus 114

4.8 km/h aus SSW

2.3 C

4.4 C

4.6 C

4.4 C

0 W/m

0.00 mm

03:05

4.6 C

1018.2 hpa

85 %

0.0 km/h aus 115

1.6 km/h aus SSW

2.3 C

4.4 C

4.6 C

4.4 C

0 W/m

0.00 mm

03:10

4.6 C

1018.2 hpa

85 %

0.0 km/h aus 116

3.2 km/h aus SSW

2.3 C

4.4 C

4.6 C

4.4 C

0 W/m

0.00 mm

03:15

4.5 C

1018.2 hpa

85 %

0.0 km/h aus 117

1.6 km/h aus SSW

2.2 C

4.4 C

4.5 C

4.4 C

0 W/m

0.00 mm

03:20

4.4 C

1018.2 hpa

85 %

0.0 km/h aus 116

0.0 km/h aus ---

2.1 C

4.3 C

4.4 C

4.3 C

0 W/m

0.00 mm

03:25

4.4 C

1018.2 hpa

85 %

0.0 km/h aus 117

1.6 km/h aus SSW

2.1 C

4.3 C

4.4 C

4.3 C

0 W/m

0.00 mm

03:30

4.3 C

1018.5 hpa

85 %

1.6 km/h aus 115

3.2 km/h aus SSW

2.0 C

4.2 C

4.3 C

4.2 C

0 W/m

0.00 mm

03:35

4.2 C

1018.5 hpa

85 %

3.2 km/h aus 117

4.8 km/h aus SSW

1.9 C

3.9 C

4.1 C

4.1 C

0 W/m

0.00 mm

03:40

4.2 C

1018.5 hpa

85 %

3.2 km/h aus 114

4.8 km/h aus SSW

1.9 C

3.9 C

4.0 C

4.1 C

0 W/m

0.00 mm

03:45

4.1 C

1018.6 hpa

85 %

3.2 km/h aus 116

8.0 km/h aus SSW

1.8 C

3.8 C

3.9 C

4.0 C

0 W/m

0.00 mm

03:50

4.1 C

1018.6 hpa

85 %

3.2 km/h aus 117

8.0 km/h aus SSW

1.8 C

3.8 C

3.9 C

3.9 C

0 W/m

0.00 mm

03:55

4.1 C

1018.6 hpa

85 %

4.8 km/h aus 116

8.0 km/h aus SSW

1.8 C

3.0 C

3.1 C

3.9 C

0 W/m

0.00 mm

04:00

4.1 C

1018.6 hpa

86 %

3.2 km/h aus 116

6.4 km/h aus SSW

2.0 C

3.8 C

3.9 C

4.0 C

0 W/m

0.00 mm

04:05

4.1 C

1018.6 hpa

86 %

1.6 km/h aus 117

4.8 km/h aus SSW

2.0 C

4.0 C

4.1 C

4.0 C

0 W/m

0.00 mm

04:10

4.2 C

1018.6 hpa

86 %

4.8 km/h aus 116

8.0 km/h aus SSW

2.0 C

3.1 C

3.2 C

4.1 C

0 W/m

0.00 mm

04:15

4.2 C

1018.6 hpa

86 %

4.8 km/h aus 116

8.0 km/h aus SSW

2.1 C

3.2 C

3.3 C

4.1 C

0 W/m

0.00 mm

04:20

4.2 C

1018.6 hpa

86 %

4.8 km/h aus 116

6.4 km/h aus SSW

2.1 C

3.2 C

3.3 C

4.1 C

0 W/m

0.00 mm

04:25

4.3 C

1018.6 hpa

86 %

4.8 km/h aus 116

8.0 km/h aus SSW

2.1 C

3.2 C

3.3 C

4.2 C

0 W/m

0.00 mm

04:30

4.3 C

1018.3 hpa

86 %

4.8 km/h aus 115

6.4 km/h aus SSW

2.1 C

3.2 C

3.3 C

4.2 C

0 W/m

0.00 mm

04:35

4.2 C

1018.3 hpa

86 %

4.8 km/h aus 116

6.4 km/h aus SSW

2.1 C

3.2 C

3.3 C

4.1 C

0 W/m

0.00 mm

04:40

4.2 C

1018.3 hpa

86 %

4.8 km/h aus 116

8.0 km/h aus SSW

2.0 C

3.1 C

3.2 C

4.1 C

0 W/m

0.00 mm

04:45

4.1 C

1018.4 hpa

87 %

4.8 km/h aus 115

8.0 km/h aus SSW

2.1 C

3.1 C

3.2 C

4.0 C

0 W/m

0.00 mm

04:50

4.1 C

1018.4 hpa

86 %

4.8 km/h aus 117

6.4 km/h aus SSW

1.9 C

3.0 C

3.1 C

3.9 C

0 W/m

0.00 mm

04:55

3.9 C

1018.4 hpa

86 %

4.8 km/h aus 118

6.4 km/h aus SSW

1.8 C

2.8 C

2.9 C

3.8 C

0 W/m

0.00 mm

05:00

3.9 C

1018.6 hpa

86 %

3.2 km/h aus 117

4.8 km/h aus SSW

1.8 C

3.6 C

3.7 C

3.8 C

0 W/m

0.00 mm

05:05

3.8 C

1018.6 hpa

86 %

4.8 km/h aus 115

4.8 km/h aus SSW

1.7 C

2.7 C

2.8 C

3.7 C

0 W/m

0.00 mm

05:10

3.7 C

1018.6 hpa

86 %

4.8 km/h aus 117

6.4 km/h aus SSW

1.6 C

2.6 C

2.7 C

3.6 C

0 W/m

0.00 mm

05:15

3.6 C

1018.7 hpa

86 %

4.8 km/h aus 116

6.4 km/h aus SSW

1.5 C

2.5 C

2.6 C

3.5 C

0 W/m

0.00 mm

05:20

3.6 C

1018.7 hpa

86 %

3.2 km/h aus 115

4.8 km/h aus SSW

1.4 C

3.2 C

3.3 C

3.4 C

0 W/m

0.00 mm

05:25

3.4 C

1018.7 hpa

86 %

3.2 km/h aus 116

4.8 km/h aus SSW

1.3 C

3.1 C

3.2 C

3.3 C

0 W/m

0.00 mm

05:30

3.4 C

1018.8 hpa

86 %

4.8 km/h aus 114

6.4 km/h aus SSW

1.3 C

2.2 C

2.3 C

3.3 C

0 W/m

0.00 mm

05:35

3.3 C

1018.8 hpa

86 %

4.8 km/h aus 116

4.8 km/h aus SSW

1.2 C

2.2 C

2.3 C

3.2 C

0 W/m

0.00 mm

05:40

3.3 C

1018.8 hpa

86 %

4.8 km/h aus 116

9.7 km/h aus SSW

1.2 C

2.1 C

2.2 C

3.2 C

0 W/m

0.00 mm

05:45

3.2 C

1018.9 hpa

86 %

4.8 km/h aus 114

6.4 km/h aus SSW

1.1 C

2.1 C

2.2 C

3.1 C

0 W/m

0.00 mm

05:50

3.2 C

1018.9 hpa

87 %

4.8 km/h aus 116

6.4 km/h aus SSW

1.2 C

2.0 C

2.1 C

3.1 C

0 W/m

0.00 mm

05:55

3.2 C

1018.9 hpa

87 %

3.2 km/h aus 117

6.4 km/h aus SSW

1.2 C

2.8 C

2.9 C

3.1 C

3 W/m

0.00 mm

06:00

3.1 C

1018.9 hpa

87 %

3.2 km/h aus 116

6.4 km/h aus SSW

1.2 C

2.7 C

2.8 C

3.0 C

7 W/m

0.00 mm

06:05

3.1 C

1018.9 hpa

87 %

3.2 km/h aus 116

3.2 km/h aus SSW

1.1 C

2.7 C

2.8 C

2.9 C

11 W/m

0.00 mm

06:10

3.1 C

1018.9 hpa

87 %

1.6 km/h aus 117

3.2 km/h aus SSW

1.1 C

2.9 C

3.1 C

2.9 C

15 W/m

0.00 mm

06:15

3.0 C

1019.1 hpa

87 %

1.6 km/h aus 117

3.2 km/h aus SSW

1.0 C

2.9 C

3.0 C

2.9 C

19 W/m

0.00 mm

06:20

2.9 C

1019.1 hpa

87 %

1.6 km/h aus 116

3.2 km/h aus SSW

1.0 C

2.8 C

2.9 C

2.8 C

29 W/m

0.00 mm

06:25

2.9 C

1019.1 hpa

87 %

3.2 km/h aus 115

4.8 km/h aus SSW

1.0 C

2.6 C

2.7 C

2.8 C

35 W/m

0.00 mm

06:30

2.9 C

1019.2 hpa

87 %

3.2 km/h aus 115

4.8 km/h aus SSW

1.0 C

2.6 C

2.7 C

2.8 C

42 W/m

0.00 mm

06:35

2.9 C

1019.2 hpa

87 %

3.2 km/h aus 117

4.8 km/h aus SSW

0.9 C

2.5 C

2.6 C

2.8 C

45 W/m

0.00 mm

06:40

2.9 C

1019.2 hpa

87 %

4.8 km/h aus 114

6.4 km/h aus SSW

0.9 C

1.7 C

1.8 C

2.8 C

40 W/m

0.00 mm

06:45

2.9 C

1019.2 hpa

87 %

4.8 km/h aus 115

6.4 km/h aus SSW

1.0 C

1.7 C

1.8 C

2.8 C

38 W/m

0.00 mm

06:50

2.9 C

1019.2 hpa

87 %

4.8 km/h aus 115

6.4 km/h aus SSW

1.0 C

1.7 C

1.8 C

2.8 C

41 W/m

0.00 mm

06:55

3.1 C

1019.2 hpa

88 %

3.2 km/h aus 116

6.4 km/h aus SSW

1.3 C

2.7 C

2.8 C

3.0 C

60 W/m

0.00 mm

07:00

3.1 C

1019.4 hpa

88 %

3.2 km/h aus 115

3.2 km/h aus SSW

1.3 C

2.8 C

2.8 C

3.1 C

94 W/m

0.00 mm

07:05

3.2 C

1019.4 hpa

88 %

1.6 km/h aus 117

3.2 km/h aus SSW

1.4 C

3.1 C

3.2 C

3.1 C

107 W/m

0.00 mm

07:10

3.3 C

1019.4 hpa

88 %

1.6 km/h aus 116

3.2 km/h aus SSW

1.5 C

3.3 C

3.3 C

3.3 C

53 W/m

0.00 mm

07:15

3.4 C

1019.6 hpa

88 %

1.6 km/h aus 117

3.2 km/h aus SSW

1.6 C

3.4 C

3.4 C

3.4 C

112 W/m

0.00 mm

07:20

3.6 C

1019.6 hpa

89 %

1.6 km/h aus 116

3.2 km/h aus SSW

2.0 C

3.6 C

3.6 C

3.6 C

156 W/m

0.00 mm

07:25

3.8 C

1019.6 hpa

89 %

1.6 km/h aus 111

4.8 km/h aus SSW

2.2 C

3.8 C

3.8 C

3.8 C

170 W/m

0.00 mm

07:30

4.2 C

1019.6 hpa

90 %

1.6 km/h aus 97

4.8 km/h aus SSW

2.7 C

4.1 C

4.2 C

4.1 C

197 W/m

0.00 mm

07:35

4.6 C

1019.6 hpa

90 %

1.6 km/h aus 99

6.4 km/h aus SSW

3.1 C

4.5 C

4.6 C

4.5 C

174 W/m

0.00 mm

07:40

4.9 C

1019.6 hpa

90 %

3.2 km/h aus 101

6.4 km/h aus SSW

3.4 C

4.8 C

4.9 C

4.9 C

134 W/m

0.00 mm

07:45

5.3 C

1019.7 hpa

91 %

6.4 km/h aus 114

8.0 km/h aus SSW

4.0 C

4.0 C

4.0 C

5.3 C

157 W/m

0.00 mm

07:50

5.7 C

1019.7 hpa

91 %

6.4 km/h aus 115

9.7 km/h aus SSW

4.3 C

4.3 C

4.3 C

5.7 C

159 W/m

0.00 mm

07:55

5.9 C

1019.7 hpa

91 %

6.4 km/h aus 114

9.7 km/h aus SSW

4.6 C

4.7 C

4.7 C

5.9 C

241 W/m

0.00 mm

08:00

6.3 C

1019.7 hpa

91 %

6.4 km/h aus 112

9.7 km/h aus SSW

4.9 C

5.1 C

5.1 C

6.3 C

282 W/m

0.00 mm

08:05

6.7 C

1019.7 hpa

91 %

8.0 km/h aus 115

11.3 km/h aus S

5.3 C

5.2 C

5.1 C

6.7 C

301 W/m

0.00 mm

08:10

7.0 C

1019.7 hpa

91 %

9.7 km/h aus 117

14.5 km/h aus S

5.6 C

5.2 C

5.1 C

7.1 C

331 W/m

0.00 mm

08:15

7.3 C

1019.8 hpa

90 %

6.4 km/h aus 116

14.5 km/h aus SSW

5.7 C

6.3 C

6.2 C

7.3 C

341 W/m

0.00 mm

08:20

7.6 C

1019.8 hpa

90 %

6.4 km/h aus 116

11.3 km/h aus S

6.0 C

6.6 C

6.6 C

7.6 C

350 W/m

0.00 mm

08:25

7.8 C

1019.8 hpa

90 %

8.0 km/h aus 114

9.7 km/h aus S

6.3 C

6.5 C

6.4 C

7.9 C

352 W/m

0.00 mm

08:30

8.2 C

1019.7 hpa

89 %

6.4 km/h aus 117

11.3 km/h aus SSW

6.5 C

7.3 C

7.2 C

8.2 C

361 W/m

0.00 mm

08:35

8.4 C

1019.7 hpa

88 %

4.8 km/h aus 117

9.7 km/h aus SSW

6.6 C

8.1 C

8.1 C

8.5 C

389 W/m

0.00 mm

08:40

8.8 C

1019.7 hpa

87 %

6.4 km/h aus 113

9.7 km/h aus S

6.7 C

8.1 C

8.0 C

8.8 C

425 W/m

0.00 mm

08:45

9.2 C

1019.8 hpa

85 %

4.8 km/h aus 116

9.7 km/h aus S

6.8 C

8.9 C

8.9 C

9.2 C

423 W/m

0.00 mm

08:50

9.6 C

1019.8 hpa

84 %

4.8 km/h aus 116

8.0 km/h aus S

7.0 C

9.3 C

9.3 C

9.6 C

381 W/m

0.00 mm

08:55

9.9 C

1019.8 hpa

83 %

4.8 km/h aus 115

8.0 km/h aus S

7.1 C

9.8 C

9.7 C

9.9 C

297 W/m

0.00 mm

09:00

10.2 C

1020.0 hpa

81 %

4.8 km/h aus 115

11.3 km/h aus S

7.1 C

10.0 C

10.0 C

10.2 C

259 W/m

0.00 mm

09:05

10.2 C

1020.0 hpa

70 %

4.8 km/h aus 112

9.7 km/h aus S

4.9 C

9.8 C

10.0 C

9.9 C

302 W/m

0.00 mm

09:10

10.3 C

1020.0 hpa

65 %

6.4 km/h aus 115

11.3 km/h aus S

4.0 C

9.4 C

9.8 C

9.9 C

336 W/m

0.00 mm

09:15

10.4 C

1020.0 hpa

65 %

6.4 km/h aus 115

9.7 km/h aus SSW

4.1 C

9.4 C

9.8 C

10.0 C

373 W/m

0.00 mm

09:20

10.5 C

1020.0 hpa

63 %

3.2 km/h aus 117

9.7 km/h aus SSW

3.7 C

10.1 C

10.5 C

10.1 C

368 W/m

0.00 mm

09:25

10.6 C

1020.0 hpa

62 %

4.8 km/h aus 115

9.7 km/h aus SW

3.6 C

10.0 C

10.4 C

10.1 C

385 W/m

0.00 mm

09:30

10.8 C

1020.1 hpa

62 %

4.8 km/h aus 116

9.7 km/h aus SW

3.8 C

10.2 C

10.7 C

10.3 C

649 W/m

0.00 mm

09:35

11.3 C

1020.1 hpa

63 %

4.8 km/h aus 117

9.7 km/h aus WSW

4.5 C

10.7 C

11.2 C

10.8 C

673 W/m

0.00 mm

09:40

11.7 C

1020.1 hpa

60 %

8.0 km/h aus 116

14.5 km/h aus WSW

4.2 C

10.3 C

10.9 C

11.1 C

598 W/m

0.00 mm

09:45

11.8 C

1019.9 hpa

59 %

8.0 km/h aus 113

14.5 km/h aus W

4.1 C

10.5 C

11.2 C

11.2 C

650 W/m

0.00 mm

09:50

11.8 C

1019.9 hpa

57 %

6.4 km/h aus 116

14.5 km/h aus W

3.6 C

10.8 C

11.5 C

11.1 C

776 W/m

0.00 mm

09:55

12.2 C

1019.9 hpa

58 %

8.0 km/h aus 113

17.7 km/h aus NW

4.2 C

10.9 C

11.6 C

11.5 C

746 W/m

0.00 mm

10:00

12.2 C

1020.2 hpa

58 %

8.0 km/h aus 110

16.1 km/h aus W

4.2 C

10.9 C

11.6 C

11.5 C

662 W/m

0.00 mm

10:05

12.3 C

1020.2 hpa

59 %

6.4 km/h aus 112

11.3 km/h aus WNW

4.5 C

11.3 C

12.1 C

11.6 C

630 W/m

0.00 mm

10:10

12.2 C

1020.2 hpa

57 %

8.0 km/h aus 117

16.1 km/h aus WNW

3.9 C

10.8 C

11.6 C

11.4 C

567 W/m

0.00 mm

10:15

12.1 C

1020.1 hpa

58 %

9.7 km/h aus 117

17.7 km/h aus NW

4.1 C

10.5 C

11.2 C

11.4 C

473 W/m

0.00 mm

10:20

12.6 C

1020.1 hpa

59 %

6.4 km/h aus 115

12.9 km/h aus WNW

4.8 C

11.6 C

12.3 C

11.8 C

776 W/m

0.00 mm

10:25

12.6 C

1020.1 hpa

58 %

4.8 km/h aus 116

14.5 km/h aus NW

4.5 C

11.8 C

12.6 C

11.8 C

536 W/m

0.00 mm

10:30

12.4 C

1020.2 hpa

59 %

8.0 km/h aus 112

16.1 km/h aus WSW

4.6 C

11.1 C

11.8 C

11.7 C

550 W/m

0.00 mm

10:35

12.3 C

1020.2 hpa

58 %

6.4 km/h aus 114

11.3 km/h aus NW

4.2 C

11.3 C

12.0 C

11.6 C

328 W/m

0.00 mm

10:40

12.1 C

1020.2 hpa

59 %

4.8 km/h aus 114

11.3 km/h aus WNW

4.3 C

11.4 C

12.1 C

11.4 C

252 W/m

0.00 mm

10:45

11.9 C

1020.2 hpa

57 %

8.0 km/h aus 114

12.9 km/h aus WNW

3.7 C

10.6 C

11.3 C

11.2 C

277 W/m

0.00 mm

10:50

11.8 C

1020.2 hpa

58 %

4.8 km/h aus 115

12.9 km/h aus NW

3.8 C

11.2 C

11.8 C

11.2 C

299 W/m

0.00 mm

10:55

12.2 C

1020.2 hpa

60 %

4.8 km/h aus 114

11.3 km/h aus W

4.6 C

11.5 C

12.2 C

11.5 C

393 W/m

0.00 mm

11:00

12.3 C

1020.2 hpa

58 %

8.0 km/h aus 112

11.3 km/h aus NW

4.3 C

11.0 C

11.7 C

11.6 C

531 W/m

0.00 mm

11:05

12.5 C

1020.2 hpa

59 %

6.4 km/h aus 113

14.5 km/h aus NW

4.7 C

11.6 C

12.3 C

11.8 C

569 W/m

0.00 mm

11:10

12.6 C

1020.2 hpa

57 %

4.8 km/h aus 115

14.5 km/h aus W

4.3 C

11.8 C

12.6 C

11.8 C

543 W/m

0.00 mm

11:15

12.8 C

1020.2 hpa

56 %

9.7 km/h aus 114

19.3 km/h aus SW

4.2 C

11.2 C

12.0 C

11.9 C

617 W/m

0.00 mm

11:20

12.8 C

1020.2 hpa

56 %

8.0 km/h aus 116

17.7 km/h aus WSW

4.3 C

11.5 C

12.3 C

12.0 C

616 W/m

0.00 mm

11:25

13.1 C

1020.2 hpa

54 %

4.8 km/h aus 114

11.3 km/h aus WSW

4.0 C

12.2 C

13.1 C

12.2 C

573 W/m

0.00 mm

11:30

13.1 C

1020.2 hpa

53 %

6.4 km/h aus 116

12.9 km/h aus WNW

3.7 C

11.9 C

12.9 C

12.1 C

513 W/m

0.00 mm

11:35

12.9 C

1020.2 hpa

56 %

1.6 km/h aus 115

6.4 km/h aus NW

4.4 C

12.1 C

12.9 C

12.1 C

411 W/m

0.00 mm

11:40

12.9 C

1020.2 hpa

52 %

6.4 km/h aus 114

16.1 km/h aus WNW

3.3 C

11.8 C

12.8 C

12.0 C

396 W/m

0.00 mm

11:45

13.2 C

1020.2 hpa

53 %

6.4 km/h aus 115

16.1 km/h aus NW

3.8 C

12.1 C

13.0 C

12.2 C

471 W/m

0.00 mm

11:50

13.3 C

1020.2 hpa

54 %

4.8 km/h aus 116

11.3 km/h aus NW

4.2 C

12.4 C

13.3 C

12.4 C

578 W/m

0.00 mm

11:55

13.4 C

1020.2 hpa

55 %

8.0 km/h aus 117

16.1 km/h aus NW

4.6 C

12.2 C

13.1 C

12.6 C

571 W/m

0.00 mm

12:00

13.6 C

1020.2 hpa

55 %

8.0 km/h aus 116

12.9 km/h aus NNW

4.7 C

12.3 C

13.2 C

12.7 C

557 W/m

0.00 mm

12:05

13.5 C

1020.2 hpa

50 %

9.7 km/h aus 117

19.3 km/h aus NW

3.3 C

11.8 C

12.9 C

12.4 C

576 W/m

0.00 mm

12:10

13.3 C

1020.2 hpa

51 %

9.7 km/h aus 117

19.3 km/h aus WNW

3.4 C

11.7 C

12.7 C

12.3 C

433 W/m

0.00 mm

12:15

13.1 C

1020.2 hpa

51 %

9.7 km/h aus 117

19.3 km/h aus WNW

3.2 C

11.4 C

12.4 C

12.1 C

369 W/m

0.00 mm

12:20

13.1 C

1020.2 hpa

52 %

8.0 km/h aus 118

19.3 km/h aus WNW

3.4 C

11.7 C

12.6 C

12.1 C

367 W/m

0.00 mm

12:25

13.1 C

1020.2 hpa

50 %

9.7 km/h aus 116

17.7 km/h aus NW

2.9 C

11.3 C

12.3 C

12.0 C

411 W/m

0.00 mm

12:30

13.0 C

1020.2 hpa

52 %

6.4 km/h aus 114

16.1 km/h aus WNW

3.4 C

11.9 C

12.8 C

12.1 C

484 W/m

0.00 mm

12:35

13.1 C

1020.2 hpa

52 %

8.0 km/h aus 116

17.7 km/h aus WNW

3.5 C

11.7 C

12.7 C

12.2 C

521 W/m

0.00 mm

12:40

13.1 C

1020.2 hpa

51 %

9.7 km/h aus 117

16.1 km/h aus NW

3.2 C

11.4 C

12.4 C

12.1 C

496 W/m

0.00 mm

12:45

13.3 C

1020.1 hpa

51 %

9.7 km/h aus 117

20.9 km/h aus NW

3.3 C

11.6 C

12.6 C

12.3 C

545 W/m

0.00 mm

12:50

13.3 C

1020.1 hpa

51 %

9.7 km/h aus 117

16.1 km/h aus NW

3.3 C

11.6 C

12.6 C

12.3 C

623 W/m

0.00 mm

12:55

13.8 C

1020.1 hpa

54 %

8.0 km/h aus 116

19.3 km/h aus WNW

4.6 C

12.5 C

13.4 C

12.8 C

724 W/m

0.00 mm

13:00

13.6 C

1020.1 hpa

51 %

8.0 km/h aus 117

19.3 km/h aus WNW

3.6 C

12.2 C

13.2 C

12.6 C

550 W/m

0.00 mm

13:05

13.6 C

1020.1 hpa

50 %

9.7 km/h aus 115

20.9 km/h aus WNW

3.3 C

11.9 C

12.9 C

12.5 C

455 W/m

0.00 mm

13:10

13.3 C

1020.1 hpa

49 %

6.4 km/h aus 116

14.5 km/h aus WNW

2.8 C

12.1 C

13.2 C

12.2 C

363 W/m

0.00 mm

13:15

13.2 C

1020.1 hpa

51 %

6.4 km/h aus 116

16.1 km/h aus NW

3.3 C

12.1 C

13.1 C

12.2 C

474 W/m

0.00 mm

13:20

13.8 C

1020.1 hpa

52 %

6.4 km/h aus 117

16.1 km/h aus NW

4.1 C

12.8 C

13.8 C

12.8 C

688 W/m

0.00 mm

13:25

13.7 C

1020.1 hpa

49 %

4.8 km/h aus 116

16.1 km/h aus WNW

3.2 C

12.6 C

13.7 C

12.6 C

495 W/m

0.00 mm

13:30

13.7 C

1019.8 hpa

51 %

3.2 km/h aus 115

11.3 km/h aus NNW

3.7 C

12.7 C

13.7 C

12.7 C

419 W/m

0.00 mm

13:35

13.6 C

1019.8 hpa

52 %

6.4 km/h aus 117

16.1 km/h aus NW

3.9 C

12.5 C

13.5 C

12.6 C

408 W/m

0.00 mm

13:40

13.6 C

1019.8 hpa

50 %

6.4 km/h aus 117

16.1 km/h aus NW

3.3 C

12.4 C

13.5 C

12.5 C

401 W/m

0.00 mm

13:45

13.6 C

1020.0 hpa

51 %

6.4 km/h aus 117

14.5 km/h aus WNW

3.6 C

12.5 C

13.5 C

12.6 C

396 W/m

0.00 mm

13:50

13.5 C

1020.0 hpa

53 %

4.8 km/h aus 117

14.5 km/h aus WNW

4.1 C

12.6 C

13.5 C

12.6 C

361 W/m

0.00 mm

13:55

13.4 C

1020.0 hpa

52 %

6.4 km/h aus 114

14.5 km/h aus NW

3.8 C

12.3 C

13.3 C

12.4 C

358 W/m

0.00 mm

14:00

13.4 C

1020.1 hpa

51 %

4.8 km/h aus 114

9.7 km/h aus NNW

3.5 C

12.4 C

13.4 C

12.4 C

346 W/m

0.00 mm

14:05

13.4 C

1020.1 hpa

52 %

4.8 km/h aus 112

9.7 km/h aus NNW

3.8 C

12.4 C

13.4 C

12.4 C

326 W/m

0.00 mm

14:10

13.4 C

1020.1 hpa

52 %

6.4 km/h aus 83

16.1 km/h aus NNW

3.8 C

12.3 C

13.3 C

12.4 C

361 W/m

0.00 mm

14:15

13.6 C

1020.2 hpa

51 %

6.4 km/h aus 95

14.5 km/h aus NNW

3.6 C

12.5 C

13.5 C

12.6 C

397 W/m

0.00 mm

14:20

13.7 C

1020.2 hpa

50 %

8.0 km/h aus 103

16.1 km/h aus N

3.4 C

12.3 C

13.3 C

12.6 C

415 W/m

0.00 mm

14:25

13.7 C

1020.2 hpa

50 %

8.0 km/h aus 105

17.7 km/h aus NNW

3.4 C

12.3 C

13.3 C

12.6 C

416 W/m

0.00 mm

14:30

13.6 C

1020.0 hpa

52 %

3.2 km/h aus 113

11.3 km/h aus N

3.9 C

12.6 C

13.6 C

12.6 C

419 W/m

0.00 mm

14:35

13.7 C

1020.0 hpa

51 %

6.4 km/h aus 112

16.1 km/h aus NNW

3.8 C

12.7 C

13.7 C

12.7 C

376 W/m

0.00 mm

14:40

13.7 C

1020.0 hpa

54 %

4.8 km/h aus 96

14.5 km/h aus NNE

4.6 C

12.8 C

13.7 C

12.8 C

345 W/m

0.00 mm

14:45

13.6 C

1020.1 hpa

54 %

1.6 km/h aus 102

11.3 km/h aus NNE

4.5 C

12.7 C

13.6 C

12.7 C

286 W/m

0.00 mm

14:50

13.6 C

1020.1 hpa

50 %

8.0 km/h aus 89

17.7 km/h aus WNW

3.4 C

12.2 C

13.3 C

12.6 C

292 W/m

0.00 mm

14:55

13.4 C

1020.1 hpa

52 %

8.0 km/h aus 75

14.5 km/h aus NNW

3.8 C

12.1 C

13.1 C

12.4 C

310 W/m

0.00 mm

15:00

13.4 C

1020.2 hpa

52 %

8.0 km/h aus 47

16.1 km/h aus N

3.8 C

12.1 C

13.1 C

12.4 C

318 W/m

0.00 mm

15:05

13.4 C

1020.2 hpa

50 %

4.8 km/h aus 69

14.5 km/h aus NNW

3.2 C

12.4 C

13.4 C

12.4 C

355 W/m

0.00 mm

15:10

13.6 C

1020.2 hpa

52 %

6.4 km/h aus 68

17.7 km/h aus NW

3.9 C

12.6 C

13.6 C

12.6 C

331 W/m

0.00 mm

15:15

13.5 C

1020.2 hpa

52 %

6.4 km/h aus 78

17.7 km/h aus NW

3.8 C

12.4 C

13.4 C

12.5 C

343 W/m

0.00 mm

15:20

13.5 C

1020.2 hpa

50 %

8.0 km/h aus 88

17.7 km/h aus WNW

3.3 C

12.1 C

13.1 C

12.4 C

364 W/m

0.00 mm

15:25

13.6 C

1020.2 hpa

52 %

8.0 km/h aus 75

11.3 km/h aus NNW

3.9 C

12.3 C

13.3 C

12.6 C

381 W/m

0.00 mm

15:30

13.7 C

1020.2 hpa

51 %

8.0 km/h aus 73

16.1 km/h aus N

3.7 C

12.3 C

13.3 C

12.7 C

343 W/m

0.00 mm

15:35

13.6 C

1020.2 hpa

53 %

4.8 km/h aus 79

11.3 km/h aus NNW

4.2 C

12.7 C

13.6 C

12.7 C

312 W/m

0.00 mm

15:40

13.6 C

1020.2 hpa

52 %

8.0 km/h aus 78

14.5 km/h aus NNW

3.9 C

12.2 C

13.2 C

12.6 C

310 W/m

0.00 mm

15:45

13.5 C

1020.2 hpa

52 %

8.0 km/h aus 63

16.1 km/h aus NNE

3.8 C

12.1 C

13.1 C

12.5 C

329 W/m

0.00 mm

15:50

13.6 C

1020.2 hpa

51 %

6.4 km/h aus 87

16.1 km/h aus NW

3.6 C

12.5 C

13.5 C

12.6 C

368 W/m

0.00 mm

15:55

13.8 C

1020.2 hpa

50 %

8.0 km/h aus 106

16.1 km/h aus NNW

3.5 C

12.4 C

13.4 C

12.7 C

428 W/m

0.00 mm

16:00

13.8 C

1020.1 hpa

50 %

8.0 km/h aus 103

14.5 km/h aus NNW

3.5 C

12.4 C

13.4 C

12.7 C

481 W/m

0.00 mm

16:05

14.1 C

1020.1 hpa

52 %

9.7 km/h aus 85

17.7 km/h aus NNW

4.3 C

12.6 C

13.6 C

13.1 C

484 W/m

0.00 mm

16:10

14.0 C

1020.1 hpa

49 %

12.9 km/h aus 94

19.3 km/h aus NNW

3.4 C

11.7 C

12.8 C

12.9 C

475 W/m

0.00 mm

16:15

14.0 C

1020.1 hpa

50 %

8.0 km/h aus 91

16.1 km/h aus N

3.7 C

12.6 C

13.7 C

12.9 C

463 W/m

0.00 mm

16:20

14.1 C

1020.1 hpa

49 %

4.8 km/h aus 91

11.3 km/h aus NNW

3.5 C

12.9 C

14.1 C

12.9 C

406 W/m

0.00 mm

16:25

13.9 C

1020.1 hpa

49 %

6.4 km/h aus 77

16.1 km/h aus NW

3.4 C

12.8 C

13.9 C

12.8 C

328 W/m

0.00 mm

16:30

13.8 C

1020.1 hpa

50 %

8.0 km/h aus 57

17.7 km/h aus NNW

3.5 C

12.4 C

13.4 C

12.7 C

346 W/m

0.00 mm

16:35

13.7 C

1020.1 hpa

49 %

8.0 km/h aus 60

19.3 km/h aus NW

3.1 C

12.2 C

13.3 C

12.6 C

346 W/m

0.00 mm

16:40

13.6 C

1020.1 hpa

47 %

6.4 km/h aus 68

14.5 km/h aus NW

2.5 C

12.4 C

13.6 C

12.4 C

334 W/m

0.00 mm

16:45

13.8 C

1020.2 hpa

48 %

4.8 km/h aus 95

11.3 km/h aus NNW

3.0 C

12.7 C

13.8 C

12.7 C

318 W/m

0.00 mm

16:50

13.8 C

1020.2 hpa

50 %

4.8 km/h aus 99

11.3 km/h aus N

3.6 C

12.8 C

13.8 C

12.8 C

342 W/m

0.00 mm

16:55

13.9 C

1020.2 hpa

49 %

4.8 km/h aus 103

9.7 km/h aus NNW

3.4 C

12.8 C

13.9 C

12.8 C

364 W/m

0.00 mm

17:00

14.0 C

1020.2 hpa

48 %

8.0 km/h aus 109

16.1 km/h aus NW

3.2 C

12.6 C

13.7 C

12.9 C

366 W/m

0.00 mm

17:05

14.1 C

1020.2 hpa

48 %

6.4 km/h aus 110

14.5 km/h aus N

3.2 C

12.9 C

14.1 C

12.9 C

368 W/m

0.00 mm

17:10

14.2 C

1020.2 hpa

49 %

4.8 km/h aus 107

11.3 km/h aus N

3.6 C

13.1 C

14.2 C

13.1 C

369 W/m

0.00 mm

17:15

14.3 C

1020.2 hpa

48 %

4.8 km/h aus 98

11.3 km/h aus NNW

3.5 C

13.2 C

14.3 C

13.2 C

382 W/m

0.00 mm

17:20

14.4 C

1020.2 hpa

47 %

3.2 km/h aus 117

9.7 km/h aus NNW

3.3 C

13.2 C

14.4 C

13.2 C

508 W/m

0.00 mm

17:25

14.6 C

1020.2 hpa

50 %

3.2 km/h aus 115

11.3 km/h aus NNW

4.3 C

13.5 C

14.6 C

13.5 C

464 W/m

0.00 mm

17:30

14.6 C

1020.1 hpa

48 %

6.4 km/h aus 110

20.9 km/h aus N

3.7 C

13.4 C

14.6 C

13.4 C

395 W/m

0.00 mm

17:35

14.3 C

1020.1 hpa

48 %

8.0 km/h aus 88

20.9 km/h aus N

3.5 C

12.9 C

14.1 C

13.2 C

354 W/m

0.00 mm

17:40

14.3 C

1020.1 hpa

50 %

6.4 km/h aus 93

14.5 km/h aus NNW

4.0 C

13.2 C

14.3 C

13.2 C

350 W/m

0.00 mm

17:45

14.2 C

1019.9 hpa

50 %

8.0 km/h aus 101

16.1 km/h aus NE

3.9 C

12.8 C

13.9 C

13.1 C

308 W/m

0.00 mm

17:50

14.1 C

1019.9 hpa

50 %

6.4 km/h aus 97

16.1 km/h aus NNE

3.8 C

13.0 C

14.1 C

13.0 C

238 W/m

0.00 mm

17:55

13.8 C

1019.9 hpa

50 %

4.8 km/h aus 91

16.1 km/h aus NNE

3.5 C

12.7 C

13.8 C

12.7 C

205 W/m

0.00 mm

18:00

13.6 C

1020.1 hpa

50 %

8.0 km/h aus 71

16.1 km/h aus NNW

3.3 C

12.1 C

13.2 C

12.5 C

203 W/m

0.00 mm

18:05

13.5 C

1020.1 hpa

50 %

6.4 km/h aus 65

11.3 km/h aus NNE

3.3 C

12.4 C

13.4 C

12.4 C

218 W/m

0.00 mm

18:10

13.5 C

1020.1 hpa

49 %

3.2 km/h aus 81

9.7 km/h aus NNW

3.0 C

12.4 C

13.5 C

12.4 C

227 W/m

0.00 mm

18:15

13.6 C

1020.1 hpa

50 %

3.2 km/h aus 97

9.7 km/h aus N

3.3 C

12.5 C

13.6 C

12.5 C

221 W/m

0.00 mm

18:20

13.6 C

1020.1 hpa

49 %

4.8 km/h aus 106

9.7 km/h aus NNE

3.1 C

12.5 C

13.6 C

12.5 C

214 W/m

0.00 mm

18:25

13.6 C

1020.1 hpa

48 %

6.4 km/h aus 116

11.3 km/h aus N

2.8 C

12.4 C

13.6 C

12.5 C

198 W/m

0.00 mm

18:30

13.6 C

1020.2 hpa

49 %

3.2 km/h aus 115

9.7 km/h aus N

3.1 C

12.5 C

13.6 C

12.5 C

191 W/m

0.00 mm

18:35

13.5 C

1020.2 hpa

49 %

4.8 km/h aus 117

9.7 km/h aus NNE

3.0 C

12.4 C

13.5 C

12.4 C

194 W/m

0.00 mm

18:40

13.4 C

1020.2 hpa

49 %

6.4 km/h aus 111

14.5 km/h aus NNE

2.9 C

12.2 C

13.3 C

12.3 C

178 W/m

0.00 mm

18:45

13.3 C

1020.2 hpa

50 %

3.2 km/h aus 115

8.0 km/h aus NNE

3.1 C

12.3 C

13.3 C

12.3 C

154 W/m

0.00 mm

18:50

13.3 C

1020.2 hpa

50 %

3.2 km/h aus 109

9.7 km/h aus N

3.1 C

12.2 C

13.3 C

12.2 C

151 W/m

0.00 mm

18:55

13.3 C

1020.2 hpa

51 %

3.2 km/h aus 97

9.7 km/h aus NNE

3.3 C

12.3 C

13.3 C

12.3 C

146 W/m

0.00 mm

19:00

13.3 C

1020.2 hpa

52 %

3.2 km/h aus 88

8.0 km/h aus NNE

3.6 C

12.3 C

13.3 C

12.3 C

137 W/m

0.00 mm

19:05

13.1 C

1020.2 hpa

51 %

3.2 km/h aus 87

8.0 km/h aus NNE

3.2 C

12.1 C

13.1 C

12.1 C

105 W/m

0.00 mm

19:10

13.0 C

1020.2 hpa

51 %

4.8 km/h aus 81

14.5 km/h aus NNE

3.1 C

12.0 C

13.0 C

12.0 C

86 W/m

0.00 mm

19:15

12.9 C

1020.4 hpa

51 %

6.4 km/h aus 94

16.1 km/h aus N

3.0 C

11.7 C

12.7 C

11.9 C

90 W/m

0.00 mm

19:20

12.8 C

1020.4 hpa

56 %

9.7 km/h aus 75

19.3 km/h aus NNW

4.3 C

11.2 C

12.1 C

12.0 C

92 W/m

0.00 mm

19:25

12.7 C

1020.4 hpa

59 %

8.0 km/h aus 86

16.1 km/h aus NW

4.9 C

11.5 C

12.2 C

12.0 C

94 W/m

0.00 mm

19:30

12.7 C

1020.4 hpa

60 %

8.0 km/h aus 63

20.9 km/h aus N

5.1 C

11.4 C

12.2 C

11.9 C

84 W/m

0.00 mm

19:35

12.6 C

1020.4 hpa

60 %

9.7 km/h aus 59

17.7 km/h aus N

5.0 C

11.0 C

11.7 C

11.8 C

84 W/m

0.00 mm

19:40

12.4 C

1020.4 hpa

60 %

8.0 km/h aus 69

19.3 km/h aus NW

4.9 C

11.2 C

11.9 C

11.8 C

48 W/m

0.00 mm

19:45

12.3 C

1020.6 hpa

61 %

8.0 km/h aus 68

17.7 km/h aus N

5.0 C

11.0 C

11.7 C

11.6 C

40 W/m

0.00 mm

19:50

12.1 C

1020.6 hpa

62 %

6.4 km/h aus 70

14.5 km/h aus NNW

5.0 C

11.2 C

11.8 C

11.5 C

40 W/m

0.00 mm

19:55

11.9 C

1020.6 hpa

62 %

6.4 km/h aus 49

14.5 km/h aus N

4.9 C

11.0 C

11.6 C

11.3 C

40 W/m

0.00 mm

20:00

11.8 C

1020.7 hpa

62 %

6.4 km/h aus 31

11.3 km/h aus N

4.7 C

10.8 C

11.4 C

11.2 C

40 W/m

0.00 mm

20:05

11.7 C

1020.7 hpa

62 %

9.7 km/h aus 28

16.1 km/h aus N

4.6 C

10.1 C

10.7 C

11.1 C

28 W/m

0.00 mm

20:10

11.6 C

1020.7 hpa

62 %

12.9 km/h aus 62

25.7 km/h aus NW

4.5 C

9.4 C

9.9 C

11.0 C

26 W/m

0.00 mm

20:15

11.5 C

1020.8 hpa

62 %

8.0 km/h aus 49

17.7 km/h aus NNW

4.5 C

10.2 C

10.8 C

10.9 C

26 W/m

0.00 mm

20:20

11.4 C

1020.8 hpa

62 %

9.7 km/h aus 43

19.3 km/h aus NW

4.4 C

9.8 C

10.4 C

10.9 C

26 W/m

0.00 mm

20:25

11.3 C

1020.8 hpa

63 %

8.0 km/h aus 48

17.7 km/h aus NNW

4.5 C

10.1 C

10.6 C

10.8 C

14 W/m

0.00 mm

20:30

11.2 C

1021.1 hpa

63 %

8.0 km/h aus 50

16.1 km/h aus NNW

4.4 C

9.9 C

10.4 C

10.7 C

14 W/m

0.00 mm

20:35

11.1 C

1021.1 hpa

63 %

9.7 km/h aus 54

22.5 km/h aus NW

4.3 C

9.5 C

10.0 C

10.6 C

14 W/m

0.00 mm

20:40

11.0 C

1021.1 hpa

63 %

12.9 km/h aus 59

22.5 km/h aus NW

4.2 C

8.8 C

9.3 C

10.5 C

7 W/m

0.00 mm

20:45

10.9 C

1021.3 hpa

63 %

9.7 km/h aus 64

17.7 km/h aus NW

4.1 C

9.3 C

9.8 C

10.4 C

5 W/m

0.00 mm

20:50

10.8 C

1021.3 hpa

64 %

9.7 km/h aus 75

20.9 km/h aus NW

4.2 C

9.2 C

9.6 C

10.3 C

5 W/m

0.00 mm

20:55

10.7 C

1021.3 hpa

64 %

12.9 km/h aus 79

22.5 km/h aus NW

4.1 C

8.4 C

8.8 C

10.2 C

0 W/m

0.00 mm

21:00

10.6 C

1021.5 hpa

64 %

12.9 km/h aus 42

20.9 km/h aus NNW

4.0 C

8.3 C

8.7 C

10.2 C

0 W/m

0.00 mm

21:05

10.4 C

1021.5 hpa

64 %

11.3 km/h aus 54

17.7 km/h aus NNW

3.9 C

8.6 C

9.0 C

10.1 C

0 W/m

0.00 mm

21:10

10.3 C

1021.5 hpa

65 %

11.3 km/h aus 59

19.3 km/h aus NW

4.0 C

8.4 C

8.8 C

9.9 C

0 W/m

0.00 mm

21:15

10.2 C

1021.8 hpa

65 %

8.0 km/h aus 70

17.7 km/h aus NW

3.9 C

8.9 C

9.2 C

9.8 C

0 W/m

0.00 mm

21:20

10.1 C

1021.8 hpa

65 %

11.3 km/h aus 93

20.9 km/h aus NW

3.8 C

8.2 C

8.5 C

9.7 C

0 W/m

0.00 mm

21:25

10.0 C

1021.8 hpa

66 %

9.7 km/h aus 83

16.1 km/h aus NNW

3.9 C

8.4 C

8.7 C

9.7 C

0 W/m

0.00 mm

21:30

9.9 C

1021.8 hpa

66 %

9.7 km/h aus 85

17.7 km/h aus NW

3.8 C

8.3 C

8.6 C

9.6 C

0 W/m

0.00 mm

21:35

9.8 C

1021.8 hpa

66 %

9.7 km/h aus 86

19.3 km/h aus NW

3.7 C

8.1 C

8.4 C

9.4 C

0 W/m

0.00 mm

21:40

9.7 C

1021.8 hpa

67 %

6.4 km/h aus 60

16.1 km/h aus NNW

3.8 C

8.7 C

9.0 C

9.4 C

0 W/m

0.00 mm

21:45

9.6 C

1022.2 hpa

67 %

6.4 km/h aus 62

11.3 km/h aus NNW

3.8 C

8.7 C

8.9 C

9.3 C

0 W/m

0.00 mm

21:50

9.6 C

1022.2 hpa

67 %

6.4 km/h aus 69

14.5 km/h aus NNW

3.7 C

8.6 C

8.8 C

9.3 C

0 W/m

0.00 mm

21:55

9.4 C

1022.2 hpa

68 %

8.0 km/h aus 61

16.1 km/h aus NW

3.8 C

8.1 C

8.3 C

9.2 C

0 W/m

0.00 mm

22:00

9.3 C

1022.3 hpa

68 %

8.0 km/h aus 39

20.9 km/h aus N

3.7 C

7.9 C

8.2 C

9.1 C

0 W/m

0.00 mm

22:05

9.3 C

1022.3 hpa

68 %

8.0 km/h aus 44

17.7 km/h aus N

3.7 C

7.9 C

8.2 C

9.0 C

0 W/m

0.00 mm

22:10

9.2 C

1022.3 hpa

69 %

6.4 km/h aus 57

14.5 km/h aus N

3.8 C

8.2 C

8.5 C

8.9 C

0 W/m

0.00 mm

22:15

9.1 C

1022.4 hpa

69 %

8.0 km/h aus 77

17.7 km/h aus N

3.7 C

7.7 C

7.9 C

8.8 C

0 W/m

0.00 mm

22:20

9.1 C

1022.4 hpa

69 %

6.4 km/h aus 84

11.3 km/h aus NNW

3.7 C

8.0 C

8.3 C

8.8 C

0 W/m

0.00 mm

22:25

8.9 C

1022.4 hpa

69 %

4.8 km/h aus 71

14.5 km/h aus N

3.6 C

8.3 C

8.6 C

8.7 C

0 W/m

0.00 mm

22:30

8.9 C

1022.7 hpa

70 %

3.2 km/h aus 90

8.0 km/h aus NNW

3.7 C

8.6 C

8.9 C

8.6 C

0 W/m

0.00 mm

22:35

8.8 C

1022.7 hpa

70 %

6.4 km/h aus 70

17.7 km/h aus N

3.7 C

7.8 C

8.1 C

8.6 C

0 W/m

0.00 mm

22:40

8.8 C

1022.7 hpa

70 %

4.8 km/h aus 68

9.7 km/h aus NNW

3.6 C

8.2 C

8.4 C

8.5 C

0 W/m

0.00 mm

22:45

8.7 C

1022.7 hpa

70 %

6.4 km/h aus 72

17.7 km/h aus NNW

3.6 C

7.6 C

7.9 C

8.4 C

0 W/m

0.00 mm

22:50

8.6 C

1022.7 hpa

70 %

4.8 km/h aus 82

9.7 km/h aus NNW

3.4 C

7.9 C

8.2 C

8.3 C

0 W/m

0.00 mm

22:55

8.6 C

1022.7 hpa

71 %

4.8 km/h aus 77

11.3 km/h aus NNW

3.6 C

7.9 C

8.2 C

8.3 C

0 W/m

0.00 mm

23:00

8.5 C

1022.8 hpa

71 %

4.8 km/h aus 71

11.3 km/h aus N

3.5 C

7.8 C

8.1 C

8.2 C

0 W/m

0.00 mm

23:05

8.4 C

1022.8 hpa

71 %

4.8 km/h aus 68

9.7 km/h aus N

3.4 C

7.7 C

8.0 C

8.1 C

0 W/m

0.00 mm

23:10

8.3 C

1022.8 hpa

72 %

4.8 km/h aus 72

9.7 km/h aus N

3.6 C

7.7 C

7.9 C

8.1 C

0 W/m

0.00 mm

23:15

8.2 C

1022.8 hpa

72 %

3.2 km/h aus 79

8.0 km/h aus N

3.5 C

8.0 C

8.2 C

8.0 C

0 W/m

0.00 mm

23:20

8.2 C

1022.8 hpa

72 %

1.6 km/h aus 83

4.8 km/h aus N

3.4 C

7.9 C

8.2 C

7.9 C

0 W/m

0.00 mm

23:25

8.1 C

1022.8 hpa

72 %

1.6 km/h aus 78

6.4 km/h aus N

3.3 C

7.8 C

8.1 C

7.8 C

0 W/m

0.00 mm

23:30

7.9 C

1022.9 hpa

73 %

1.6 km/h aus 72

6.4 km/h aus N

3.4 C

7.7 C

7.9 C

7.7 C

0 W/m

0.00 mm

23:35

7.8 C

1022.9 hpa

73 %

4.8 km/h aus 63

9.7 km/h aus N

3.3 C

7.2 C

7.4 C

7.6 C

0 W/m

0.00 mm

23:40

7.7 C

1022.9 hpa

74 %

4.8 km/h aus 46

11.3 km/h aus NNW

3.4 C

7.1 C

7.3 C

7.5 C

0 W/m

0.00 mm

23:45

7.6 C

1023.0 hpa

74 %

3.2 km/h aus 50

9.7 km/h aus N

3.3 C

7.4 C

7.6 C

7.4 C

0 W/m

0.00 mm

23:50

7.5 C

1023.0 hpa

75 %

3.2 km/h aus 68

8.0 km/h aus N

3.4 C

7.3 C

7.5 C

7.3 C

0 W/m

0.00 mm

23:55

7.4 C

1023.0 hpa

75 %

3.2 km/h aus 59

6.4 km/h aus N

3.3 C

7.2 C

7.4 C

7.2 C

0 W/m

0.00 mm